Regional Weather Roundup
Issued by NWS Bismarck, ND

Home | Current Version | Previous Version | Text Only | Print | Product List | Glossary On
Versions: 1 2 3 4 5 6 7 8 9 10 11 12 13 14 15 16 17 18 19 20 21 22 23 24 25 26 27 28 29 30 31 32 33 34 35 36 37 38 39 40 41 42 43 44 45 46 47 48 49 50
215
ASUS43 KBIS 260202
RWRBIS

NWR BROADCAST TEXT
NATIONAL WEATHER SERVICE BISMARCK ND
900 PM CDT MON JUL 25 2016

NOTE: "FAIR" INDICATES FEW OR NO CLOUDS BELOW 12,000 FEET WITH NO
SIGNIFICANT WEATHER AND/OR OBSTRUCTIONS TO VISIBILITY.


CITY           SKY/WX    TMP DP  RH WIND       PRES   REMARKS
WILLISTON      CLEAR     85  57  38 NE7       29.98R
MINOT          CLEAR     81  69  67 N7        29.96R
MINOT AFB      CLEAR     81  64  55 NE6       29.95S
BISMARCK       CLEAR     82  70  66 E7        29.90S
DICKINSON      CLEAR     79  58  48 NE10      29.95R
GARRISON         N/A     80  70  71 NE7       29.95R
HETTINGER ARPT PTCLDY    88  57  34 E13       29.96R
JAMESTOWN      CLEAR     79  68  69 S3        29.91R
CARRINGTON     FAIR      82  70  65 N3        29.94S
HAZEN          FAIR      79  66  65 NE6       29.95S
OAKES            N/A    N/A N/A N/A MISG        N/A
STANLEY        FAIR      79  64  61 NE6       30.02S
$$

CITY           SKY/WX    TMP DP  RH WIND       PRES   REMARKS
GRAND FORKS    PTCLDY    84  69  60 E5        29.88F
GRAND FORKS AF CLEAR     82  69  65 E5        29.89F
DEVILS LAKE    CLEAR     79  70  74 N10       29.94R
FARGO          PTCLDY    84  64  50 S8        29.91S
CAVALIER       FAIR      81  66  61 CALM      29.92S
GRAFTON        FAIR      77  72  83 NE7       29.93S
GWINNER        FAIR      79  64  61 S9        29.93S
LANGDON        FAIR      75  72  88 SE5       29.97S
ROLLA          FAIR      75  68  78 NE3       29.99S
$$

CITY           SKY/WX    TMP DP  RH WIND       PRES   REMARKS
ABERDEEN       CLEAR     78  62  57 S9        29.94S
MOBRIDGE       CLEAR     89  51  27 S12       29.89S
BUFFALO          N/A     83  50  31 SE14G22   29.92R
RAPID CITY     CLOUDY    83  58  42 SE3       29.98S
GLASGOW        CLEAR     82  56  40 E9        29.95S
SIDNEY         CLEAR     83  57  41 NE13      29.96S
WOLF POINT     CLEAR     88  52  29 E7        29.95S
GLENDIVE       CLEAR     86  53  32 NE13      29.96R
MILES CITY     CLEAR     93  44  18 NE16      29.91S
BAKER          CLEAR     86  52  30 NE9       29.97R
$$

CITY           SKY/WX    TMP DP  RH WIND       PRES   REMARKS
BILLINGS       PTCLDY    89  37  16 NE14      29.96S
GREAT FALLS    CLEAR     85  44  23 N12       30.04R
$$





USA.gov is the U.S. government's official web portal to all federal, state and local government web resources and services.